FW8419 Weather Reports


Display with metric or nautical units.
time (UTC)temp
F
wind
direction
speed
MPH
gust
MPH
rain 1hr
in
rain 24hr
in
rain mn
in
humidity
%
barometer
mb
20260902120124 61 130 1.0 6.0 0.00 0.00 0.00 85 1005.8
20260902115143 61 124 2.0 6.0 0.00 0.00 0.00 84 1006.0
20260902114122 61 135 2.0 6.0 0.00 0.00 0.00 84 1006.0
20260902113122 61 138 2.0 5.0 0.00 0.00 0.00 84 1006.0
20260902112143 61 0 0.0 0.0 0.00 0.00 0.00 83 1006.1
20260902111144 62 0 0.0 0.0 0.00 0.00 0.00 83 1006.3
20260902110122 62 0 0.0 2.0 0.00 0.00 0.00 83 1006.4
20260902105122 62 124 0.0 3.0 0.00 0.00 0.00 82 1006.4
20260902104122 62 138 1.0 6.0 0.00 0.00 0.00 81 1006.6
20260902103124 62 117 1.0 6.0 0.00 0.00 0.00 81 1006.6
20260902102124 62 0 0.0 0.0 0.00 0.00 0.00 80 1006.7
20260902101122 62 128 1.0 8.0 0.00 0.00 0.00 80 1006.7
20260902100122 62 143 3.0 13.0 0.00 0.00 0.00 80 1006.8
20260902095144 62 149 3.0 14.0 0.00 0.00 0.00 80 1006.8
20260902094145 62 149 5.0 19.0 0.00 0.00 0.00 80 1006.9
20260902093122 62 147 5.0 21.0 0.00 0.00 0.00 81 1007.0
20260902092122 62 165 2.0 11.0 0.00 0.00 0.00 81 1007.1
20260902091124 62 161 2.0 11.0 0.00 0.00 0.00 82 1007.2
20260902090122 62 151 4.0 11.0 0.00 0.00 0.00 84 1007.2
20260902085122 61 126 3.0 11.0 0.00 0.00 0.00 88 1007.2
20260902084122 61 126 4.0 11.0 0.00 0.00 0.00 89 1007.2
20260902083123 61 128 6.0 14.0 0.00 0.00 0.00 89 1007.3
20260902082123 61 126 5.0 14.0 0.00 0.00 0.00 90 1007.2
20260902081123 61 126 5.0 13.0 0.00 0.00 0.00 90 1007.3
20260902080143 61 128 4.0 11.0 0.00 0.00 0.00 91 1007.2
20260902075143 61 127 4.0 13.0 0.00 0.00 0.00 91 1007.2
20260902074122 61 123 4.0 11.0 0.00 0.00 0.00 91 1007.2
20260902073122 61 123 3.0 11.0 0.00 0.00 0.00 91 1007.3
20260902072122 61 124 3.0 8.0 0.00 0.00 0.00 91 1007.3
20260902071122 61 125 3.0 10.0 0.00 0.00 0.00 91 1007.3
20260902070122 61 125 4.0 13.0 0.00 0.00 0.00 91 1007.3
20260902065124 61 120 2.0 6.0 0.00 0.00 0.00 91 1007.4
20260902064122 62 125 3.0 11.0 0.00 0.00 0.00 91 1007.5
20260902063122 62 125 4.0 13.0 0.00 0.00 0.00 89 1007.4
20260902062144 62 127 2.0 11.0 0.00 0.00 0.00 89 1007.6
20260902061146 62 121 3.0 8.0 0.00 0.00 0.00 89 1007.7
20260902060145 62 122 3.0 10.0 0.00 0.00 0.00 87 1007.7
20260902055122 62 124 4.0 11.0 0.00 0.00 0.00 86 1007.7
20260902054122 63 120 4.0 13.0 0.00 0.00 0.00 85 1007.7
20260902053122 64 138 4.0 13.0 0.00 0.00 0.00 82 1007.8
20260902052122 64 124 4.0 11.0 0.00 0.00 0.00 79 1007.9
20260902051124 64 113 3.0 13.0 0.00 0.00 0.00 77 1007.8
20260902050122 65 119 2.0 10.0 0.00 0.00 0.00 75 1007.8
20260902045143 65 117 2.0 11.0 0.00 0.00 0.00 72 1007.8
20260902044124 65 151 2.0 11.0 0.00 0.00 0.00 72 1007.8
20260902043124 65 166 1.0 13.0 0.00 0.00 0.00 72 1007.9
20260902042124 65 152 5.0 16.0 0.00 0.00 0.00 72 1007.9
20260902041122 66 148 3.0 11.0 0.00 0.00 0.00 71 1007.8
20260902040124 66 131 3.0 14.0 0.00 0.00 0.00 70 1007.8
20260902035124 66 139 2.0 13.0 0.00 0.00 0.00 69 1007.7
20260902034124 66 123 3.0 10.0 0.00 0.00 0.00 68 1007.6
20260902033123 66 133 2.0 8.0 0.00 0.00 0.00 66 1007.6
20260902032122 66 124 3.0 10.0 0.00 0.00 0.00 66 1007.6
20260902031122 67 123 3.0 14.0 0.00 0.00 0.00 64 1007.5
20260902030122 67 126 2.0 10.0 0.00 0.00 0.00 64 1007.6
20260902025145 67 144 1.0 11.0 0.00 0.00 0.00 64 1007.5
20260902024122 67 119 3.0 10.0 0.00 0.00 0.00 63 1007.6
20260902023122 67 126 4.0 14.0 0.00 0.00 0.00 63 1007.6
20260902022122 67 127 2.0 10.0 0.00 0.00 0.00 63 1007.5
20260902021122 67 125 5.0 21.0 0.00 0.00 0.00 64 1007.5
20260902020122 68 130 3.0 11.0 0.00 0.00 0.00 64 1007.6
20260902015143 68 131 3.0 10.0 0.00 0.00 0.00 64 1007.6
20260902014122 68 133 2.0 8.0 0.00 0.00 0.00 64 1007.7
20260902013124 68 154 3.0 10.0 0.00 0.00 0.00 65 1007.6
20260902012143 68 149 3.0 10.0 0.00 0.00 0.00 65 1007.5
20260902011143 68 149 3.0 13.0 0.00 0.00 0.00 65 1007.4
20260902010122 68 145 1.0 8.0 0.00 0.00 0.00 65 1007.4
20260902005145 68 187 2.0 10.0 0.00 0.00 0.00 65 1007.3
20260902004122 68 147 5.0 18.0 0.00 0.00 0.00 64 1007.3
20260902003122 68 174 1.0 6.0 0.00 0.00 0.00 64 1007.3
20260902002124 68 226 3.0 13.0 0.00 0.00 0.00 63 1007.4
20260902001122 68 211 1.0 6.0 0.00 0.00 0.00 63 1007.4
20260902000122 69 243 4.0 18.0 0.00 0.00 0.00 63 1007.3
20260901235122 68 226 2.0 10.0 0.00 0.00 0.00 65 1007.2
20260901234145 68 180 1.0 11.0 0.00 0.00 0.00 66 1007.3
20260901233122 68 215 3.0 13.0 0.00 0.00 0.00 66 1007.2
20260901232124 68 224 4.0 13.0 0.00 0.00 0.00 66 1007.3
20260901231122 69 221 2.0 13.0 0.00 0.00 0.00 68 1007.2
20260901230124 69 234 4.0 13.0 0.00 0.00 0.00 69 1007.2
20260901225143 69 224 3.0 13.0 0.00 0.00 0.00 68 1007.1
20260901224123 69 231 3.0 13.0 0.00 0.00 0.00 69 1007.1
20260901223124 69 218 2.0 13.0 0.00 0.00 0.00 69 1007.1
20260901222122 69 228 3.0 11.0 0.00 0.00 0.00 69 1007.2
20260901221122 69 216 3.0 14.0 0.00 0.00 0.00 68 1007.3
20260901220123 69 225 6.0 19.0 0.00 0.00 0.00 67 1007.4
20260901215122 71 267 4.0 14.0 0.00 0.00 0.00 64 1007.4
20260901214143 71 242 4.0 14.0 0.00 0.00 0.00 61 1007.5
20260901213122 71 239 6.0 19.0 0.00 0.00 0.00 59 1007.5
20260901212122 72 247 6.0 18.0 0.00 0.00 0.00 60 1007.5
20260901211122 72 248 3.0 16.0 0.00 0.00 0.00 57 1007.4
20260901210122 73 214 2.0 16.0 0.00 0.00 0.00 58 1007.3
20260901205122 73 170 4.0 14.0 0.00 0.00 0.00 58 1007.5
20260901204122 72 237 1.0 6.0 0.00 0.00 0.00 59 1007.3
20260901203122 72 259 3.0 16.0 0.00 0.00 0.00 59 1007.4
20260901202122 72 254 2.0 11.0 0.00 0.00 0.00 59 1007.3
20260901201122 72 250 2.0 10.0 0.00 0.00 0.00 58 1007.4
20260901200122 72 208 3.0 11.0 0.00 0.00 0.00 59 1007.5
20260901195127 72 237 2.0 8.0 0.00 0.00 0.00 60 1007.6
20260901195122 72 239 2.0 8.0 0.00 0.00 0.00 60 1007.6
20260901194124 72 212 2.0 8.0 0.00 0.00 0.00 62 1007.6
20260901193124 71 227 1.0 8.0 0.00 0.00 0.00 63 1007.7
20260901192124 71 149 4.0 16.0 0.00 0.00 0.00 63 1007.7
20260901191122 71 144 5.0 13.0 0.00 0.00 0.00 63 1007.8
20260901190122 71 168 3.0 13.0 0.00 0.00 0.00 63 1007.9
20260901185143 71 204 2.0 13.0 0.00 0.00 0.00 64 1007.9
20260901184122 70 127 3.0 13.0 0.00 0.00 0.00 69 1007.8
20260901183124 69 113 4.0 13.0 0.00 0.00 0.00 70 1007.9
20260901182122 69 96 4.0 14.0 0.00 0.00 0.00 70 1007.9
20260901181145 69 108 3.0 13.0 0.00 0.00 0.00 71 1008.0
20260901180123 68 96 4.0 13.0 0.00 0.00 0.00 72 1008.2
20260901175122 68 109 4.0 13.0 0.00 0.00 0.00 73 1008.2
20260901174122 67 94 4.0 14.0 0.00 0.00 0.00 74 1008.2
20260901173122 67 118 5.0 16.0 0.00 0.00 0.00 74 1008.3
20260901172144 66 125 5.0 14.0 0.00 0.00 0.00 73 1008.2
20260901171123 66 110 3.0 11.0 0.00 0.00 0.00 74 1008.3
20260901170122 66 109 3.0 11.0 0.00 0.00 0.00 75 1008.4
20260901165122 65 97 2.0 11.0 0.00 0.00 0.00 78 1008.4
20260901164145 63 113 3.0 11.0 0.00 0.00 0.00 81 1008.6
20260901163122 63 100 4.0 11.0 0.00 0.00 0.00 83 1008.6
20260901162143 62 108 3.0 11.0 0.00 0.00 0.00 85 1008.7
20260901161122 61 110 4.0 13.0 0.00 0.00 0.00 87 1008.7
20260901160122 60 112 5.0 14.0 0.00 0.00 0.00 88 1008.8
20260901155122 59 124 5.0 14.0 0.00 0.00 0.00 89 1008.8
20260901154122 59 114 4.0 13.0 0.00 0.00 0.00 90 1008.8
20260901153123 59 126 4.0 13.0 0.00 0.00 0.00 91 1008.7
20260901152122 58 128 4.0 11.0 0.00 0.00 0.00 91 1008.4
20260901151144 58 122 3.0 8.0 0.00 0.00 0.00 91 1008.3
20260901150127 58 109 2.0 8.0 0.00 0.00 0.00 92 1008.3
20260901150122 58 108 2.0 8.0 0.00 0.00 0.00 92 1008.3
20260901145124 58 126 3.0 10.0 0.00 0.00 0.00 92 1008.2
20260901144122 58 128 3.0 8.0 0.00 0.00 0.00 92 1008.1
20260901143122 57 126 3.0 6.0 0.00 0.00 0.00 92 1008.0
20260901142122 57 129 3.0 8.0 0.00 0.00 0.00 92 1007.9
20260901141122 57 128 0.0 6.0 0.00 0.00 0.00 92 1007.8
20260901140124 57 0 0.0 0.0 0.00 0.00 0.00 92 1007.7
20260901135122 57 132 2.0 5.0 0.00 0.00 0.00 92 1007.8
20260901134122 57 107 1.0 5.0 0.00 0.00 0.00 92 1007.7
20260901133122 57 114 2.0 5.0 0.00 0.00 0.00 92 1007.8
20260901132124 57 124 2.0 6.0 0.00 0.00 0.00 92 1007.7
20260901131143 57 123 1.0 6.0 0.00 0.00 0.00 91 1007.7
20260901130122 57 131 1.0 3.0 0.00 0.00 0.00 91 1007.7
20260901125122 57 134 2.0 6.0 0.00 0.00 0.00 91 1007.6
20260901124122 57 134 1.0 5.0 0.00 0.00 0.00 90 1007.7
20260901123122 57 134 1.0 3.0 0.00 0.00 0.00 90 1007.7
20260901122122 57 0 0.0 0.0 0.00 0.00 0.00 90 1007.8
20260901121122 57 134 0.0 2.0 0.00 0.00 0.00 90 1007.8